Regional Weather Roundup
Issued by NWS

Home | Current Version | Previous Version | Graphics & Text | Print | Product List | Glossary Off
Versions: 1 2 3 4 5 6 7 8 9 10 11 12 13 14 15 16 17 18 19 20 21 22 23 24 25 26 27

000
ASUS45 KCYS 292310
RWRWY

WYOMING REGIONAL WEATHER ROUNDUP
NATIONAL WEATHER SERVICE CHEYENNE WY
500 PM MDT MON AUG 29 2016

NOTE:  "FAIR" INDICATES FEW OR NO CLOUDS BELOW 12,000 FEET
WITH NO SIGNIFICANT WEATHER AND/OR OBSTRUCTIONS TO VISIBILITY.

WYZ001-300000-
YELLOWSTONE NATIONAL PARK

CITY           SKY/WX    TMP DP  RH WIND       PRES   REMARKS
LK YELLOWSTONE   N/A     74  22  14 VRB6      30.42S
W YELLOWSTONE  NOT AVBL

$$
WYZ002>013-054>058-071-098>099-300000-
NORTHERN WYOMING

CITY           SKY/WX    TMP DP  RH WIND       PRES   REMARKS
JACKSON        SUNNY     82  25  12 W8        30.29F
CODY           FAIR      84  39  20 E8G16     30.23F
GREYBULL       FAIR      88  40  18 CALM      30.15F
WORLAND        FAIR      88  41  19 N5        30.17F
SHERIDAN       FAIR      88  45  22 SE6       30.20F
BUFFALO        FAIR      84  39  20 SW7       30.28F
GILLETTE       FAIR      88  40  18 VRB6      30.22F
HULETT         FAIR      81  50  34 E13G21    30.27F
NEWCASTLE      MOCLDY    64  45  48 S14G29    30.26R

$$
WYZ014>020-022>026-101>103-300000-
CENTRAL WYOMING

CITY           SKY/WX    TMP DP  RH WIND       PRES   REMARKS
BIG PINEY      FAIR      82  24  12 S9        30.36F
PINEDALE       FAIR      81  25  12 E12       30.36F
DUBOIS         FAIR      73  28  19 E15G26    30.37F
LANDER         FAIR      86  30  13 CALM      30.27F
RIVERTON       FAIR      85  30  13 E5        30.27F
CASPER         FAIR      85  33  15 E15       30.27S
DOUGLAS        FAIR      84  44  24 E9G18     30.27S

$$
WYZ021-027>030-104>119-300000-
SOUTHERN WYOMING

CITY           SKY/WX    TMP DP  RH WIND       PRES   REMARKS
EVANSTON       FAIR      82  21  10 MISG      30.34F
FORT BRIDGER   FAIR      83  20  10 N9        30.38S
ROCK SPRINGS   FAIR      82  21  10 E6G17     30.32F
DIXON          DRIZZLE   75  33  21 S13G30    30.33S
RAWLINS        FAIR      80  28  15 E20G26    30.35R
SARATOGA       CLOUDY    77  30  18 E9        30.36S
LARAMIE        FAIR      73  31  21 E14       30.40S
CHEYENNE       FAIR      77  40  26 E17       30.34R
TORRINGTON     LGT RAIN  83  54  36 VRB3      30.22S
PINE BLUFFS    FAIR      77  43  29 E13       30.29R

$$




USA.gov is the U.S. government's official web portal to all federal, state and local government web resources and services.